Waarnemingen

Advertentie
Mijn weer
Maastricht, Nederland (6380): temperatuur & dauwpunt: 14.06.2018 09:00:00 - 20.06.2018 09:00:00 (CEST)Maastricht, Nederland (6380): temperatuur 5cm: 14.06.2018 09:00:00 - 20.06.2018 09:00:00 (CEST)Maastricht, Nederland (6380): windsnelheid & windstoten: 14.06.2018 09:00:00 - 20.06.2018 09:00:00 (CEST)Maastricht, Nederland (6380): windrichting: 14.06.2018 09:00:00 - 20.06.2018 09:00:00 (CEST)Maastricht, Nederland (6380): luchtdruk: 14.06.2018 09:00:00 - 20.06.2018 09:00:00 (CEST)Maastricht, Nederland (6380): zicht: 14.06.2018 09:00:00 - 20.06.2018 09:00:00 (CEST)Maastricht, Nederland (6380): neerslag: 14.06.2018 09:00:00 - 20.06.2018 09:00:00 (CEST)
Datum & Tijd tt [°C] td [°C] tt 5cm [°C] ff [km/u] ff [kn] fx [km/u] fx [kn] dd ppp [hPa] vv [km] rr [mm]
20.06.2018 09:00:00 19,6 15,9 20,9 11 6 14 8 ZW 1022,5 10 0,0
20.06.2018 08:00:00 18,6 15,7 18,8 5 3 14 8 ZW 1022,6 10 0,0
20.06.2018 07:00:00 17,6 15,2 17,4 9 5 11 6 WZW 1022,7 10 0,0
20.06.2018 06:00:00 16,7 15,9 16,2 5 3 7 4 ZZW 1022,7 10 0,0
20.06.2018 05:00:00 16,9 16,0 16,2 8 4 7 4 ZZW 1022,9 10 0,0
20.06.2018 04:00:00 16,8 15,8 16,3 8 4 7 4 ZZW 1023,3 10 0,0
20.06.2018 03:00:00 17,5 16,0 17,2 8 4 7 4 ZW 1023,5 10 0,0
20.06.2018 02:00:00 17,8 16,2 17,4 2 1 14 8 - 1023,9 10 0,0
20.06.2018 01:00:00 18,5 15,9 18,0 9 5 14 8 ZW 1024,2 10 0,0
20.06.2018 00:00:00 18,4 16,0 17,8 4 2 4 2 - 1024,3 10 0,0
19.06.2018 23:00:00 18,7 15,9 18,1 4 2 7 4 ZZW 1024,4 10 0,0
19.06.2018 22:00:00 19,1 15,9 18,5 4 2 11 6 - 1024,3 10 0,0
19.06.2018 21:00:00 19,5 15,9 19,2 8 4 14 8 WZW 1024,0 10 0,0
19.06.2018 20:00:00 20,0 15,6 20,0 13 7 18 10 WZW 1024,1 10 0,0
19.06.2018 19:00:00 20,6 15,6 21,0 13 7 22 12 WZW 1024,3 10 0,0
19.06.2018 18:00:00 20,5 15,7 20,8 11 6 18 10 WZW 1024,3 34 0,0
19.06.2018 17:00:00 20,9 15,6 22,0 11 6 18 10 W 1024,5 10 0,0
19.06.2018 16:00:00 20,6 16,0 21,6 8 4 18 10 W 1024,8 10 0,0
19.06.2018 15:00:00 19,0 15,7 19,2 13 7 18 10 WZW 1024,9 10 0,0
19.06.2018 14:00:00 19,5 15,8 20,4 13 7 25 14 ZW 1024,7 10 0,0
19.06.2018 13:00:00 19,3 16,1 20,5 15 8 22 12 WZW 1024,6 10 0,0
19.06.2018 12:00:00 18,1 15,4 18,5 9 5 18 10 WZW 1024,6 10 0,0
19.06.2018 11:00:00 17,8 15,1 17,8 13 7 25 14 WZW 1024,4 10 0,0
19.06.2018 10:00:00 17,1 15,2 16,8 15 8 22 12 ZW 1024,2 10 0,0
19.06.2018 09:00:00 16,8 14,4 16,0 16 9 25 14 ZW 1023,7 10 0,0
19.06.2018 08:00:00 16,1 14,3 15,8 16 9 22 12 ZZW 1023,4 10 0,0
19.06.2018 07:00:00 15,0 13,5 14,7 18 10 25 14 ZZW 1023,3 10 0,0
19.06.2018 06:00:00 14,5 12,9 14,2 21 11 25 14 ZW 1023,1 10 0,0
19.06.2018 05:00:00 14,3 12,4 13,5 18 10 29 16 ZW 1022,6 29 0,0
19.06.2018 04:00:00 14,0 11,9 12,9 18 10 25 14 ZW 1022,3 21 0,0
19.06.2018 03:00:00 13,9 11,9 12,7 14 8 25 14 ZW 1022,3 37 0,0
19.06.2018 02:00:00 14,7 12,0 13,4 14 8 22 12 ZW 1022,1 42 0,0
19.06.2018 01:00:00 15,1 12,5 13,7 13 7 18 10 ZW 1022,1 10 0,0
19.06.2018 00:00:00 15,6 12,7 14,0 11 6 18 10 ZW 1022,1 10 0,0
18.06.2018 23:00:00 16,9 13,0 15,2 13 7 22 12 WZW 1021,8 10 0,0
18.06.2018 22:00:00 17,7 13,0 16,1 13 7 29 16 WZW 1021,1 10 0,0
18.06.2018 21:00:00 19,4 13,6 18,4 15 8 32 18 W 1020,9 10 0,0
18.06.2018 20:00:00 20,4 13,8 19,9 15 8 36 19 W 1020,6 10 0,0
18.06.2018 19:00:00 21,2 14,6 21,9 18 10 32 18 WZW 1020,3 10 0,0
18.06.2018 18:00:00 21,6 14,9 22,2 18 10 32 18 W 1020,3 10 0,0
18.06.2018 17:00:00 21,5 15,8 20,3 22 12 36 19 WZW 1020,7 10 0,0
18.06.2018 16:00:00 20,9 15,7 20,1 18 10 32 18 ZW 1020,9 28 0,0
18.06.2018 15:00:00 20,8 15,6 19,6 18 10 32 18 ZW 1020,8 10 0,0
18.06.2018 14:00:00 19,9 14,7 20,3 22 12 32 18 ZW 1020,9 10 0,0
18.06.2018 13:00:00 19,4 14,2 19,1 18 10 36 19 WZW 1020,7 10 0,0
18.06.2018 12:00:00 19,1 13,7 18,5 21 11 36 19 ZW 1020,6 10 0,0
18.06.2018 11:00:00 19,1 13,1 19,4 26 14 36 19 ZW 1020,6 10 0,0
18.06.2018 10:00:00 18,9 13,0 19,2 21 11 36 19 ZW 1020,4 10 0,0
18.06.2018 09:00:00 18,2 12,3 17,5 22 12 29 16 ZW 1020,2 10 0,0
18.06.2018 08:00:00 17,2 12,1 16,5 22 12 25 14 ZZW 1020,0 10 0,0
18.06.2018 07:00:00 16,1 11,6 15,1 16 9 25 14 ZW 1020,2 10 0,0
18.06.2018 06:00:00 15,9 10,9 14,9 16 9 22 12 ZW 1020,1 10 0,0
18.06.2018 05:00:00 15,3 11,5 14,4 11 6 18 10 ZZW 1019,8 10 0,0
18.06.2018 04:00:00 15,1 11,7 14,2 11 6 14 8 ZZW 1019,8 10 0,0
18.06.2018 03:00:00 15,2 11,4 14,4 11 6 14 8 Z 1019,9 10 0,0
18.06.2018 02:00:00 15,1 10,8 14,2 11 6 14 8 ZZW 1020,3 10 0,0
18.06.2018 01:00:00 15,2 10,0 13,9 11 6 14 8 ZW 1020,4 10 0,0
18.06.2018 00:00:00 15,2 9,7 13,7 9 5 14 8 WZW 1020,4 10 0,0
17.06.2018 23:00:00 15,6 9,3 14,1 9 5 22 12 WZW 1020,2 10 0,0
17.06.2018 22:00:00 16,7 10,2 15,5 15 8 22 12 ZW 1019,8 10 0,0
17.06.2018 21:00:00 16,9 10,7 15,9 13 7 22 12 ZZW 1019,4 10 0,0
17.06.2018 20:00:00 17,2 10,1 16,5 13 7 22 12 ZW 1019,4 10 0,0
17.06.2018 19:00:00 17,6 9,9 17,5 16 9 25 14 ZW 1019,3 10 0,0
17.06.2018 18:00:00 17,2 9,5 17,4 16 9 32 18 WZW 1019,3 10 0,0
17.06.2018 17:00:00 16,9 9,3 17,0 21 11 32 18 ZW 1019,3 10 0,0
17.06.2018 16:00:00 16,4 9,1 16,4 21 11 32 18 WZW 1019,4 10 0,0
17.06.2018 15:00:00 16,9 10,1 16,4 15 8 32 18 WZW 1019,0 10 0,0
17.06.2018 14:00:00 16,8 9,3 16,8 16 9 32 18 WZW 1018,8 10 0,0
17.06.2018 13:00:00 16,3 9,5 16,0 18 10 36 19 WZW 1018,6 10 0,0
17.06.2018 12:00:00 16,7 9,9 17,2 26 14 36 19 WZW 1018,3 10 0,0
17.06.2018 11:00:00 16,9 10,6 17,4 18 10 29 16 WZW 1018,0 10 0,0
17.06.2018 10:00:00 15,8 9,9 16,3 24 13 32 18 ZW 1017,9 10 0,0
17.06.2018 09:00:00 15,7 10,6 15,7 21 11 29 16 WZW 1017,5 10 0,0
17.06.2018 08:00:00 14,7 10,5 14,5 22 12 29 16 ZW 1017,1 10 0,0
17.06.2018 07:00:00 14,7 10,7 13,8 18 10 22 12 ZW 1016,9 10 0,0
17.06.2018 06:00:00 14,5 10,7 13,0 15 8 22 12 ZW 1016,8 10 0,0
17.06.2018 05:00:00 14,1 10,2 13,3 15 8 18 10 ZW 1016,8 10 0,0
17.06.2018 04:00:00 14,2 10,1 12,9 13 7 14 8 ZZW 1016,4 10 0,0
17.06.2018 03:00:00 13,6 10,1 11,8 13 7 18 10 ZW 1016,5 10 0,0
17.06.2018 02:00:00 14,4 9,6 12,4 13 7 18 10 ZW 1016,6 10 0,0
17.06.2018 01:00:00 14,4 9,8 12,4 9 5 14 8 WZW 1016,3 10 0,0
17.06.2018 00:00:00 15,4 10,3 12,9 9 5 14 8 WZW 1016,2 10 0,0
16.06.2018 23:00:00 16,2 10,9 14,0 5 3 18 10 WZW 1016,1 10 0,0
16.06.2018 22:00:00 17,6 10,7 15,7 8 4 22 12 WZW 1015,8 10 0,0
16.06.2018 21:00:00 18,6 11,4 17,1 11 6 22 12 WZW 1015,3 10 0,0
16.06.2018 20:00:00 19,4 11,8 18,4 15 8 29 16 W 1015,1 10 0,0
16.06.2018 19:00:00 20,6 11,8 20,2 15 8 29 16 W 1014,6 10 0,0
16.06.2018 18:00:00 21,8 13,4 22,0 15 8 29 16 WZW 1014,2 10 0,0
16.06.2018 17:00:00 20,6 14,4 20,0 15 8 29 16 WZW 1014,6 10 0,0
16.06.2018 16:00:00 22,3 13,7 22,4 22 12 32 18 ZW 1014,2 10 0,0
16.06.2018 15:00:00 22,9 13,4 25,0 13 7 22 12 WZW 1014,6 10 0,0
16.06.2018 14:00:00 21,2 12,0 21,3 11 6 22 12 WZW 1015,0 10 0,0
16.06.2018 13:00:00 21,9 14,2 22,7 15 8 29 16 W 1015,6 10 0,0
16.06.2018 12:00:00 21,1 13,8 22,4 11 6 18 10 ZW 1015,6 10 0,0
16.06.2018 11:00:00 20,2 13,0 22,0 8 4 14 8 Z 1015,5 10 0,0
16.06.2018 10:00:00 17,8 12,2 18,4 11 6 14 8 ZW 1015,9 10 0,0
16.06.2018 09:00:00 16,5 12,3 16,6 11 6 14 8 W 1016,0 10 0,0
16.06.2018 08:00:00 15,7 12,9 15,2 11 6 18 10 ZW 1015,8 10 0,0
16.06.2018 07:00:00 14,0 12,4 13,1 14 8 18 10 ZZW 1015,6 15 0,0
16.06.2018 06:00:00 13,1 11,8 12,0 11 6 14 8 ZZW 1015,5 13 0,0
16.06.2018 05:00:00 13,1 11,8 12,1 11 6 14 8 ZZW 1015,6 14 0,0
16.06.2018 04:00:00 13,0 11,5 12,0 11 6 14 8 ZZW 1015,9 17 0,0
16.06.2018 03:00:00 13,3 11,5 12,0 11 6 18 10 ZZW 1015,9 23 0,0
16.06.2018 02:00:00 13,6 11,0 12,0 11 6 11 6 ZZW 1015,9 31 0,0
16.06.2018 01:00:00 14,8 11,5 11,2 11 6 14 8 ZZW 1015,9 24 0,0
16.06.2018 00:00:00 15,3 11,3 11,4 8 4 7 4 Z 1015,8 10 0,0
15.06.2018 23:00:00 16,2 11,2 12,3 5 3 7 4 Z 1015,8 10 0,0
15.06.2018 22:00:00 18,1 11,5 14,8 4 2 4 2 WZW 1015,7 10 0,0
15.06.2018 21:00:00 21,4 11,0 19,5 5 3 11 6 W 1015,7 10 0,0
15.06.2018 20:00:00 21,8 10,8 20,9 8 4 14 8 W 1015,8 10 0,0
15.06.2018 19:00:00 22,5 11,0 22,5 11 6 18 10 WZW 1015,8 10 0,0
15.06.2018 18:00:00 23,1 10,7 24,9 9 5 18 10 - 1015,7 10 0,0
15.06.2018 17:00:00 22,8 11,7 25,1 11 6 22 12 - 1016,1 10 0,0
15.06.2018 16:00:00 22,7 12,8 24,6 15 8 25 14 WZW 1016,4 10 0,0
15.06.2018 15:00:00 21,9 12,5 22,6 16 9 25 14 WZW 1016,5 10 0,0
15.06.2018 14:00:00 21,2 12,4 22,3 11 6 25 14 WZW 1016,5 10 0,0
15.06.2018 13:00:00 20,5 12,1 20,5 11 6 18 10 WZW 1016,9 10 0,0
15.06.2018 12:00:00 19,3 12,8 20,8 9 5 22 12 WZW 1017,0 10 0,0
15.06.2018 11:00:00 18,6 12,3 21,3 9 5 18 10 Z 1017,0 10 0,0
15.06.2018 10:00:00 18,3 12,9 19,5 9 5 18 10 ZZW 1017,0 10 0,0
15.06.2018 09:00:00 16,7 13,1 16,2 8 4 11 6 ZZW 1017,1 10 0,0
15.06.2018 08:00:00 15,4 11,7 14,9 8 4 11 6 WZW 1016,8 10 0,0
15.06.2018 07:00:00 14,5 12,1 14,0 8 4 14 8 WZW 1016,9 10 0,0
15.06.2018 06:00:00 14,7 13,6 14,5 11 6 14 8 ZZW 1016,5 9 0,0
15.06.2018 05:00:00 14,5 14,0 13,7 5 3 11 6 ZW 1016,2 8 0,0
15.06.2018 04:00:00 14,2 13,6 14,0 8 4 14 8 ZW 1016,1 10 0,0
15.06.2018 03:00:00 14,2 13,5 13,8 9 5 14 8 ZW 1016,3 10 0,0
15.06.2018 02:00:00 15,3 14,1 14,9 13 7 18 10 ZW 1016,4 10 0,0
15.06.2018 01:00:00 15,7 14,1 15,1 11 6 18 10 ZW 1016,7 10 0,0
15.06.2018 00:00:00 15,4 14,2 15,1 15 8 22 12 ZW 1016,5 10 0,0
14.06.2018 23:00:00 15,4 14,3 15,1 16 9 25 14 ZZW 1016,4 7 0,0
14.06.2018 22:00:00 15,3 14,4 15,1 15 8 22 12 ZW 1016,1 10 0,0
14.06.2018 21:00:00 15,7 13,9 15,5 18 10 29 16 WZW 1015,7 8 0,0
14.06.2018 20:00:00 17,1 13,6 16,4 18 10 25 14 ZW 1015,2 10 0,0
14.06.2018 19:00:00 17,2 14,0 16,7 18 10 25 14 ZZW 1015,0 10 0,0
14.06.2018 18:00:00 16,7 14,5 16,2 15 8 22 12 Z 1014,7 10 0,4
14.06.2018 17:00:00 17,4 14,1 17,2 13 7 22 12 ZW 1014,9 10 0,4
14.06.2018 16:00:00 18,1 12,7 17,3 16 9 29 16 WZW 1014,8 10 0,1
14.06.2018 15:00:00 20,3 11,2 21,1 18 10 36 19 ZW 1014,4 10 0,0
14.06.2018 14:00:00 20,8 11,0 21,4 26 14 40 21 ZZW 1014,8 10 0,0
14.06.2018 13:00:00 19,6 10,2 19,9 24 13 40 21 ZW 1015,4 10 0,0
14.06.2018 12:00:00 19,3 10,9 20,0 24 13 32 18 ZW 1015,4 10 0,0
14.06.2018 11:00:00 18,2 10,0 17,8 21 11 32 18 ZZW 1015,5 10 0,0
14.06.2018 10:00:00 17,3 11,1 18,0 21 11 25 14 ZZW 1015,8 10 0,0
14.06.2018 09:00:00 15,9 11,2 15,7 15 8 22 12 Z 1015,9 10 0,0

tt = temperatuur
td = dauwpunt
tt 5cm = temperatuur 5cm
ff = windsnelheid
fx = windstoten
dd = windrichting
ppp = luchtdruk
vv = zicht
rr = neerslag

Weerstations in de omgeving